Regional Weather Roundup
Issued by NWS

Home | Current Version | Previous Version | Text Only | Print | Product List | Glossary On
Versions: 1 2 3 4 5 6 7 8 9 10 11 12 13 14 15 16 17 18 19 20 21 22 23 24 25 26 27 28 29 30 31 32 33 34 35 36 37 38 39 40 41 42 43 44 45 46 47 48 49 50
629
ASUS43 KDTX 251301
RWRMI
MICHIGAN HOURLY REGIONAL WEATHER ROUNDUP
NATIONAL WEATHER SERVICE DETROIT/PONTIAC MI
800 AM EST SAT FEB 25 2017

NOTE: "FAIR" INDICATES FEW OR NO CLOUDS BELOW 12,000 FEET WITH NO
SIGNIFICANT WEATHER AND/OR OBSTRUCTION TO VISIBILITY.

MIZ047>049-052>055-059>063-066>070-074>076-081>083-251400-
SOUTHEAST LOWER MICHIGAN

CITY           SKY/WX    TMP DP  RH WIND       PRES   REMARKS
ADRIAN         CLOUDY    35  33  92 W8        29.57R WCI  29
ALMA           CLOUDY    31  26  81 SW10G28   29.53R WCI  22
ANN ARBOR      CLOUDY    37  31  78 SW16      29.53R WCI  28
BAD AXE        CLEAR     33  27  79 W17G25    29.45R WCI  22
CARO           PTCLDY    33  28  81 SW15G22   29.47R WCI  23
DETROIT CITY   CLOUDY    40  33  76 SW18G25   29.52R WCI  31
DETROIT        MOCLDY    39  33  79 SW15      29.54R WCI  31
FLINT          CLOUDY    34  29  82 W15G24    29.52R WCI  24
GROSSE ILE     CLOUDY    40  34  79 W7        29.53S WCI  35
HILLSDALE      LGT SNOW  32  30  93 W9G17     29.56R WCI  24
HOWELL         SNOW      32  31  94 W14G25    29.53R VSB 1/4 WCI  22

CITY           SKY/WX    TMP DP  RH WIND       PRES   REMARKS
JACKSON        CLOUDY    32  28  85 W16G22    29.56R WCI  21
LAMBERTVILLE   CLOUDY    40  32  73 W8G18     29.57R WCI  35
LANSING        CLOUDY    31  25  78 W23       29.56R WCI  18
LAPEER         FLURRIES  35  30  85 W15G28    29.48S WCI  25
MASON          LGT SNOW  32  30  92 W10       29.54R WCI  24
MONROE         CLEAR     39  33  81 SW17G23   29.55R WCI  29
MT. CLEMENS    CLOUDY    39  33  79 SW14      29.49R WCI  31
PONTIAC        CLOUDY    36  32  85 W12       29.49R WCI  28
PORT HOPE        N/A     35  26  69 SW12G23   29.41S WCI  27
PORT HURON     MOCLDY    37  32  81 SW6       29.50R WCI  33
TRI CITIES     MOCLDY    32  28  85 SW18G28   29.49R WCI  20
MIDLAND        CLOUDY    33  26  74 SW14G26   29.48R WCI  23
TROY           CLOUDY    38  32  79 SW7       29.53R WCI  33
SAGINAW HB     MOCLDY    34  28  80 SW13G18   29.50R WCI  25
$$
MIZ043>046-050>051-056>058-064>065-071>073-077>080-251400-
SOUTHWEST LOWER MICHIGAN

CITY           SKY/WX    TMP DP  RH WIND       PRES   REMARKS
BATTLE CREEK   CLOUDY    30  26  85 W18       29.58R WCI  18
BENTON HARBOR  CLOUDY    28  21  75 W14G26    29.67R WCI  17
BIG RAPIDS     LGT SNOW  28  25  88 W23       29.49R WCI  14
COLDWATER      CLOUDY    32  28  83 W13G21    29.60R WCI  22
FREMONT        LGT SNOW  26  24  93 W14G20    29.56R WCI  14
HOLLAND        LGT SNOW  28  22  78 W17G26    29.62R WCI  16
GRAND RAPIDS   FLURRIES  28  23  81 W17       29.58R WCI  16
IONIA          CLOUDY    29  23  76 W24G37    29.55R WCI  15
KALAMAZOO      LGT SNOW  29  25  85 W13       29.61R VSB 1   WCI  19
LUDINGTON      SNOW      24  23  93 NW12G25   29.57R VSB 1/2 WCI  13
MARSHALL       CLOUDY    31  26  81 W16G24    29.57R WCI  20
MOUNT PLEASANT CLOUDY    31  27  86 SW15G23   29.48R WCI  20
MUSKEGON       LGT SNOW  27  22  81 W13G22    29.61R WCI  16
SOUTH HAVEN    FLURRIES  28  24  86 W17G23    29.65R WCI  16
$$
MIZ016>042-251400-
NORTHERN LOWER MICHIGAN

CITY           SKY/WX    TMP DP  RH WIND       PRES   REMARKS
ALPENA         LGT SNOW  32  32 100 W10       29.37R VSB 1   WCI  24
BEAVER ISLAND  LGT SNOW  24  21  88 W8G18     29.45R WCI  15
BELLAIRE       LGT SNOW  27  25  92 W6        29.46R WCI  20
CADILLAC       LGT SNOW  27  24  89 W12G18    29.44R WCI  16
CHARLEVOIX     LGT SNOW  26  24  92 W10       29.47R WCI  16
FRANKFORT      LGT SNOW  26  23  91 NW16G28   29.52R WCI  13
GAYLORD        LGT SNOW  26  20  77 W14       29.38R WCI  14
GRAYLING       LGT SNOW  27  24  90 W10G16    29.42R WCI  17
HARBOR SPRINGS LGT SNOW  24  22  91 W5        29.42R WCI  19
HOUGHTON LAKE  FLURRIES  28  24  85 W14       29.43R WCI  17
MANISTEE       LGT SNOW  25  22  88 NW17G32   29.54R FOG     WCI  12
OSCODA         CLOUDY    35  32  88 SW21      29.39R WCI  23
PELLSTON       LGT SNOW  24  20  84 W12       29.41R FOG     WCI  13
ROGERS CITY    LGT SNOW  27  26  94 W3        29.39R
TRAVERSE CITY  LGT SNOW  27  24  89 W12       29.47R VSB 1   WCI  17
$$
MIZ007>008-015-251400-
EASTERN UPPER MICHIGAN

CITY           SKY/WX    TMP DP  RH WIND       PRES   REMARKS
KINROSS        FLURRIES  20  18  92 NW9       29.35S WCI   9
MACKINAC ISLAN FLURRIES  22  22 100 W10       29.39R WCI  11
NEWBERRY       LGT SNOW  20  19  93 NW13      29.38R WCI   8
S. S. MARIE    CLOUDY    21  18  88 NW7       29.34S WCI  12
MUNISING         N/A     22  18  85 N21G31    29.48R WCI   6
$$
MIZ004>006-011>014-085-251400-
CENTRAL UPPER MICHIGAN

CITY           SKY/WX    TMP DP  RH WIND       PRES   REMARKS
MANISTIQUE     LGT SNOW  22  21  98 NW13      29.45R VSB 3/4 WCI  10
ESCANABA       LGT SNOW  19  16  88 W15G22    29.54R FOG     WCI   5
MENOMINEE      LGT SNOW  18  15  88 NW7       29.62R VSB 1   WCI   9
SAWYER-GWINN   LGT SNOW  16  12  86 NW14      29.51R WCI   1
$$
MIZ001>003-009>011-084-251400-
WESTERN UPPER MICHIGAN

CITY           SKY/WX    TMP DP  RH WIND       PRES   REMARKS
IRON MOUNTAIN  LGT SNOW  16  10  77 NW15      29.55R VSB 3/4 WCI   1
HOUGHTON       HAZE      17  11  77 N17       29.58R VSB 3/4 WCI   1
COPPER HARBOR    N/A     20  16  84 NE29G35   29.57R WCI   1
IRONWOOD       LGT SNOW  16  13  88 NW14G21   29.70R FOG     WCI   2
$$

ABBREVIATIONS USED IN REMARKS
   TC - TEMPERATURE IN CELSIUS
  WCI - WIND CHILL INDEX
   HX - HEAT INDEX
  VSB - VISIBILITY





USA.gov is the U.S. government's official web portal to all federal, state and local government web resources and services.